Weather Roundup
Issued by NWS

Home | Current Version | Previous Version | Text Only | Print | Product List | Glossary On
Versions: 1 2 3 4 5 6 7 8 9 10 11 12 13 14 15 16 17 18 19 20 21 22 23 24 25 26 27 28 29 30 31 32 33 34 35 36 37 38 39 40 41 42 43 44 45 46 47 48 49 50
000
NZUS93 KARX 270410
HRRWXR

CURRENT HOURLY OBSERVATIONS ACROSS
MUCH OF THE UPPER MISSISSIPPI VALLEY
NATIONAL WEATHER SERVICE LA CROSSE WI
1000 PM CST FRI DEC 26 2014


...SOUTHEAST MINNESOTA...


CITY           SKY/WX    TMP DP  RH WIND       PRES   REMARKS
ROCHESTER      LGT SNOW  30  29  96 N8        30.00R VSB 3/4 WCI  22
ROCHESTER/MAYO CLOUDY    31  30  97 NW3       30.00S
WINONA         LGT SNOW  34  34 100 CALM      30.01F VSB 1
AUSTIN         LGT SNOW  30  28  93 N9        29.98F WCI  22
ALBERT LEA     CLOUDY    30  28  93 N13       30.00F WCI  20
DODGE CENTER   LGT SNOW  30  30 100 N12       30.00S WCI  21
PRESTON        LGT SNOW  31  30  97 N5        29.98F WCI  26
OWATONNA       CLOUDY    30  27  86 N10       30.03S WCI  21
FARIBAULT      CLOUDY    28  27  93 N9        30.05R FOG     WCI  20
$$

...ELSEWHERE IN MINNESOTA...


CITY           SKY/WX    TMP DP  RH WIND       PRES   REMARKS
MINNEAPOLIS    LGT SNOW  29  25  85 N9        30.07S FOG     WCI  20
INTNL FALLS    CLOUDY    17  10  74 NW6       30.14S WCI   9
DULUTH         CLOUDY    26  17  68 N8        30.06F WCI  18
RED WING       MIX PCPN  32  28  86 N5        30.03F WCI  27
REDWOOD FALLS  LGT SNOW  26  23  88 N8        30.08F FOG     WCI  18
MANKATO        CLOUDY    28  25  86 N13       30.04F WCI  18
WORTHINGTON    CLOUDY    25 -22  12 N15G21    30.04F WCI  12
FAIRMONT       CLOUDY    28  25  86 N17       30.01F WCI  16
$$

...SOUTHWEST WISCONSIN...


CITY           SKY/WX    TMP DP  RH WIND       PRES   REMARKS
LA CROSSE      CLOUDY    33  32  96 NW7       30.00F FOG     WCI  27
PRAIRIE DU CHI MOCLDY    31  29  94 CALM      29.98F
BOSCOBEL       PTCLDY    28  25  88 CALM      29.99S FOG
LONE ROCK      CLEAR     32  28  85 E3        29.98F
PLATTEVILLE    CLOUDY    37  35  90 SE5       29.98R WCI  34
FORT MC COY    CLOUDY    34  33  97 CALM      30.01F FOG
CAMP DOUGLAS   CLOUDY    34  34 100 CALM      30.00S
VIROQUA        CLOUDY    34  34 100 NE3       29.97F
WIS DELLS      PTCLDY    32  31  97 CALM      29.98S
$$

...ELSEWHERE IN WISCONSIN...


CITY           SKY/WX    TMP DP  RH WIND       PRES   REMARKS
MILWAUKEE      MOCLDY    36  33  89 CALM      30.01S
MADISON        MOCLDY    33  31  92 CALM      29.99S
GREEN BAY      CLOUDY    35  33  92 NE9       30.02S FOG     WCI  28
EAU CLAIRE     FLURRIES  32  27  81 N7        30.02F WCI  26
BLACK RVR FLS  SNOW      33  33 100 CALM      30.00F VSB 1/2
MEDFORD        CLOUDY    31  29  93 NE9       29.99F WCI  23
WAUSAU         LGT SNOW  33  32  96 E3        29.99F FOG
WIS RAPIDS     CLOUDY    33  30  88 E5        30.01F WCI  29
MARSHFIELD     LGT SNOW  33  32  96 NE5       29.99F VSB 3/4 WCI  29
RICE LAKE      LGT SNOW  30  28  92 N9        30.05F WCI  21
$$

...NORTHEAST IOWA...


CITY           SKY/WX    TMP DP  RH WIND       PRES   REMARKS
DECORAH        CLOUDY    34  32  93 NE6       29.94F WCI  29
MASON CITY     LGT SNOW  31  29  92 N12       29.98F FOG     WCI  22
CHARLES CITY   CLOUDY    34  34 100 N7        29.97S FOG     WCI  28
OELWEIN        CLOUDY    34  32  93 NE7       29.96R WCI  28
$$

...ELSEWHERE IN IOWA...


CITY           SKY/WX    TMP DP  RH WIND       PRES   REMARKS
DES MOINES     DRIZZLE   35  32  88 CALM      29.98S FOG
IOWA CITY      LGT RAIN  42  36  79 CALM      29.98S
FORT DODGE     CLOUDY    30  28  93 N10G18    29.97F WCI  21
$$

...NORTHERN ILLINOIS...


CITY           SKY/WX    TMP DP  RH WIND       PRES   REMARKS
CHICAGO-OHARE  MOCLDY    46  41  82 S9        30.01F
CHICAGO-MIDWAY PTCLDY    49  42  77 S8        30.03F
MOLINE         CLOUDY    43  39  86 E3        29.96S
ROCKFORD       CLOUDY    42  38  85 CALM      30.02F
PEORIA         CLEAR     47  41  80 S10       30.00S
$$

NOTE: "FAIR" INDICATES FEW OR NO CLOUDS BELOW 12,000 FEET WITH NO
SIGNIFICANT WEATHER AND/OR OBSTRUCTIONS TO VISIBILITY. WIND
SPEEDS ARE IN MILES-PER-HOUR.



USA.gov is the U.S. government's official web portal to all federal, state and local government web resources and services.